Year,Month,Day,Hour,Minute,Value (Times are PST for temperature in C)
2018,07,01,00,00,14.10
2018,07,01,00,01,14.10
2018,07,01,00,02,14.10
2018,07,01,00,03,14.10
2018,07,01,00,04,14.10
2018,07,01,00,05,14.10
2018,07,01,00,06,14.10
2018,07,01,00,07,14.10
2018,07,01,00,08,14.10
2018,07,01,00,09,14.10
2018,07,01,00,10,14.10
2018,07,01,00,11,14.10
2018,07,01,00,12,14.10
2018,07,01,00,13,14.10
2018,07,01,00,14,14.00
2018,07,01,00,15,14.00
2018,07,01,00,16,14.00
2018,07,01,00,17,14.00
2018,07,01,00,18,14.00
2018,07,01,00,19,14.00
2018,07,01,00,20,14.00
2018,07,01,00,21,14.00
2018,07,01,00,22,14.00
2018,07,01,00,23,14.00
2018,07,01,00,24,14.00
2018,07,01,00,25,14.00
2018,07,01,00,26,14.00
2018,07,01,00,27,14.00
2018,07,01,00,28,14.00
2018,07,01,00,29,13.90
2018,07,01,00,30,13.90
2018,07,01,00,31,13.90
2018,07,01,00,32,13.90
2018,07,01,00,33,13.90
2018,07,01,00,34,13.90
2018,07,01,00,35,13.90
2018,07,01,00,36,13.90
2018,07,01,00,37,13.90
2018,07,01,00,38,13.90
2018,07,01,00,39,13.90
2018,07,01,00,40,13.90
2018,07,01,00,41,13.90
2018,07,01,00,42,13.80
2018,07,01,00,43,13.80
2018,07,01,00,44,13.80
2018,07,01,00,45,13.80
2018,07,01,00,46,13.80
2018,07,01,00,47,13.80
2018,07,01,00,48,13.80
2018,07,01,00,49,13.80
2018,07,01,00,50,13.80
2018,07,01,00,51,13.80
2018,07,01,00,52,13.80
2018,07,01,00,53,13.80
2018,07,01,00,54,13.80
2018,07,01,00,55,13.80
2018,07,01,00,56,13.80
2018,07,01,00,57,13.80
2018,07,01,00,58,13.80
2018,07,01,00,59,13.80
2018,07,01,01,00,13.80
2018,07,01,01,01,13.80
2018,07,01,01,02,13.80
2018,07,01,01,03,13.80
2018,07,01,01,04,13.80
2018,07,01,01,05,13.80
2018,07,01,01,06,13.80
2018,07,01,01,07,13.80
2018,07,01,01,08,13.80
2018,07,01,01,09,13.80
2018,07,01,01,10,13.70
2018,07,01,01,11,13.70
2018,07,01,01,12,13.70
2018,07,01,01,13,13.70
2018,07,01,01,14,13.70
2018,07,01,01,15,13.70
2018,07,01,01,16,13.70
2018,07,01,01,17,13.70
2018,07,01,01,18,13.70
2018,07,01,01,19,13.70
2018,07,01,01,20,13.70
2018,07,01,01,21,13.70
2018,07,01,01,22,13.70
2018,07,01,01,23,13.70
2018,07,01,01,24,13.70
2018,07,01,01,25,13.60
2018,07,01,01,26,13.60
2018,07,01,01,27,13.60
2018,07,01,01,28,13.60
2018,07,01,01,29,13.60
2018,07,01,01,30,13.60
2018,07,01,01,31,13.60
2018,07,01,01,32,13.60
2018,07,01,01,33,13.50
2018,07,01,01,34,13.50
2018,07,01,01,35,13.50
2018,07,01,01,36,13.50
2018,07,01,01,37,13.40
2018,07,01,01,38,13.40
2018,07,01,01,39,13.40
2018,07,01,01,40,13.40
2018,07,01,01,41,13.40
2018,07,01,01,42,13.40
2018,07,01,01,43,13.40
2018,07,01,01,44,13.30
2018,07,01,01,45,13.30
2018,07,01,01,46,13.30
2018,07,01,01,47,13.30
2018,07,01,01,48,13.30
2018,07,01,01,49,13.30
2018,07,01,01,50,13.30
2018,07,01,01,51,13.20
2018,07,01,01,52,13.20
2018,07,01,01,53,13.20
2018,07,01,01,54,13.20
2018,07,01,01,55,13.20
2018,07,01,01,56,13.20
2018,07,01,01,57,13.20
2018,07,01,01,58,13.20
2018,07,01,01,59,13.10
2018,07,01,02,00,13.10
2018,07,01,02,01,13.10
2018,07,01,02,02,13.10
2018,07,01,02,03,13.10
2018,07,01,02,04,13.10
2018,07,01,02,05,13.10
2018,07,01,02,06,13.10
2018,07,01,02,07,13.10
2018,07,01,02,08,13.10
2018,07,01,02,09,13.10
2018,07,01,02,10,13.10
2018,07,01,02,11,13.10
2018,07,01,02,12,13.10
2018,07,01,02,13,13.00
2018,07,01,02,14,13.00
2018,07,01,02,15,13.00
2018,07,01,02,16,13.00
2018,07,01,02,17,12.90
2018,07,01,02,18,12.90
2018,07,01,02,19,12.90
2018,07,01,02,20,12.90
2018,07,01,02,21,12.80
2018,07,01,02,22,12.80
2018,07,01,02,23,12.80
2018,07,01,02,24,12.80
2018,07,01,02,25,12.80
2018,07,01,02,26,12.70
2018,07,01,02,27,12.70
2018,07,01,02,28,12.70
2018,07,01,02,29,12.70
2018,07,01,02,30,12.60
2018,07,01,02,31,12.60
2018,07,01,02,32,12.60
2018,07,01,02,33,12.60
2018,07,01,02,34,12.60
2018,07,01,02,35,12.50
2018,07,01,02,36,12.50
2018,07,01,02,37,12.50
2018,07,01,02,38,12.50
2018,07,01,02,39,12.50
2018,07,01,02,40,12.50
2018,07,01,02,41,12.40
2018,07,01,02,42,12.40
2018,07,01,02,43,12.40
2018,07,01,02,44,12.40
2018,07,01,02,45,12.40
2018,07,01,02,46,12.40
2018,07,01,02,47,12.40
2018,07,01,02,48,12.30
2018,07,01,02,49,12.30
2018,07,01,02,50,12.30
2018,07,01,02,51,12.30
2018,07,01,02,52,12.30
2018,07,01,02,53,12.30
2018,07,01,02,54,12.20
2018,07,01,02,55,12.20
2018,07,01,02,56,12.20
2018,07,01,02,57,12.20
2018,07,01,02,58,12.20
2018,07,01,02,59,12.20
2018,07,01,03,00,12.20
2018,07,01,03,01,12.10
2018,07,01,03,02,12.10
2018,07,01,03,03,12.10
2018,07,01,03,04,12.10
2018,07,01,03,05,12.10
2018,07,01,03,06,12.10
2018,07,01,03,07,12.10
2018,07,01,03,08,12.10
2018,07,01,03,09,12.10
2018,07,01,03,10,12.10
2018,07,01,03,11,12.10
2018,07,01,03,12,12.10
2018,07,01,03,13,12.10
2018,07,01,03,14,12.10
2018,07,01,03,15,12.00
2018,07,01,03,16,12.00
2018,07,01,03,17,12.00
2018,07,01,03,18,12.00
2018,07,01,03,19,12.00
2018,07,01,03,20,12.00
2018,07,01,03,21,12.00
2018,07,01,03,22,11.90
2018,07,01,03,23,11.90
2018,07,01,03,24,11.90
2018,07,01,03,25,11.90
2018,07,01,03,26,11.90
2018,07,01,03,27,11.90
2018,07,01,03,28,11.90
2018,07,01,03,29,11.90
2018,07,01,03,30,11.90
2018,07,01,03,31,11.90
2018,07,01,03,32,11.90
2018,07,01,03,33,11.90
2018,07,01,03,34,11.90
2018,07,01,03,35,11.80
2018,07,01,03,36,11.80
2018,07,01,03,37,11.80
2018,07,01,03,38,11.80
2018,07,01,03,39,11.80
2018,07,01,03,40,11.80
2018,07,01,03,41,11.80
2018,07,01,03,42,11.80
2018,07,01,03,43,11.80
2018,07,01,03,44,11.80
2018,07,01,03,45,11.80
2018,07,01,03,46,11.70
2018,07,01,03,47,11.70
2018,07,01,03,48,11.70
2018,07,01,03,49,11.70
2018,07,01,03,50,11.70
2018,07,01,03,51,11.70
2018,07,01,03,52,11.70
2018,07,01,03,53,11.70
2018,07,01,03,54,11.70
2018,07,01,03,55,11.70
2018,07,01,03,56,11.70
2018,07,01,03,57,11.70
2018,07,01,03,58,11.70
2018,07,01,03,59,11.70
2018,07,01,04,00,11.70
2018,07,01,04,01,11.70
2018,07,01,04,02,11.70
2018,07,01,04,03,11.70
2018,07,01,04,04,11.70
2018,07,01,04,05,11.70
2018,07,01,04,06,11.70
2018,07,01,04,07,11.70
2018,07,01,04,08,11.70
2018,07,01,04,09,11.70
2018,07,01,04,10,11.70
2018,07,01,04,11,11.70
2018,07,01,04,12,11.70
2018,07,01,04,13,11.60
2018,07,01,04,14,11.60
2018,07,01,04,15,11.60
2018,07,01,04,16,11.60
2018,07,01,04,17,11.60
2018,07,01,04,18,11.60
2018,07,01,04,19,11.60
2018,07,01,04,20,11.60
2018,07,01,04,21,11.60
2018,07,01,04,22,11.60
2018,07,01,04,23,11.60
2018,07,01,04,24,11.60
2018,07,01,04,25,11.60
2018,07,01,04,26,11.60
2018,07,01,04,27,11.60
2018,07,01,04,28,11.60
2018,07,01,04,29,11.60
2018,07,01,04,30,11.60
2018,07,01,04,31,11.60
2018,07,01,04,32,11.60
2018,07,01,04,33,11.60
2018,07,01,04,34,11.60
2018,07,01,04,35,11.60
2018,07,01,04,36,11.60
2018,07,01,04,37,11.60
2018,07,01,04,38,11.60
2018,07,01,04,39,11.60
2018,07,01,04,40,11.60
2018,07,01,04,41,11.60
2018,07,01,04,42,11.60
2018,07,01,04,43,11.60
2018,07,01,04,44,11.60
2018,07,01,04,45,11.60
2018,07,01,04,46,11.60
2018,07,01,04,47,11.60
2018,07,01,04,48,11.60
2018,07,01,04,49,11.60
2018,07,01,04,50,11.60
2018,07,01,04,51,11.60
2018,07,01,04,52,11.60
2018,07,01,04,53,11.60
2018,07,01,04,54,11.60
2018,07,01,04,55,11.60
2018,07,01,04,56,11.60
2018,07,01,04,57,11.60
2018,07,01,04,58,11.60
2018,07,01,04,59,11.60
2018,07,01,05,00,11.60
2018,07,01,05,01,11.60
2018,07,01,05,02,11.60
2018,07,01,05,03,11.60
2018,07,01,05,04,11.60
2018,07,01,05,05,11.60
2018,07,01,05,06,11.60
2018,07,01,05,07,11.60
2018,07,01,05,08,11.60
2018,07,01,05,09,11.60
2018,07,01,05,10,11.60
2018,07,01,05,11,11.70
2018,07,01,05,12,11.70
2018,07,01,05,13,11.70
2018,07,01,05,14,11.70
2018,07,01,05,15,11.70
2018,07,01,05,16,11.70
2018,07,01,05,17,11.70
2018,07,01,05,18,11.70
2018,07,01,05,19,11.70
2018,07,01,05,20,11.70
2018,07,01,05,21,11.70
2018,07,01,05,22,11.70
2018,07,01,05,23,11.70
2018,07,01,05,24,11.70
2018,07,01,05,25,11.70
2018,07,01,05,26,11.70
2018,07,01,05,27,11.70
2018,07,01,05,28,11.70
2018,07,01,05,29,11.70
2018,07,01,05,30,11.80
2018,07,01,05,31,11.80
2018,07,01,05,32,11.80
2018,07,01,05,33,11.80
2018,07,01,05,34,11.80
2018,07,01,05,35,11.80
2018,07,01,05,36,11.80
2018,07,01,05,37,11.80
2018,07,01,05,38,11.80
2018,07,01,05,39,11.80
2018,07,01,05,40,11.80
2018,07,01,05,41,11.80
2018,07,01,05,42,11.80
2018,07,01,05,43,11.80
2018,07,01,05,44,11.80
2018,07,01,05,45,11.90
2018,07,01,05,46,11.90
2018,07,01,05,47,11.90
2018,07,01,05,48,11.90
2018,07,01,05,49,11.90
2018,07,01,05,50,11.90
2018,07,01,05,51,11.90
2018,07,01,05,52,11.90
2018,07,01,05,53,11.90
2018,07,01,05,54,11.90
2018,07,01,05,55,11.90
2018,07,01,05,56,11.90
2018,07,01,05,57,11.90
2018,07,01,05,58,11.90
2018,07,01,05,59,11.90
2018,07,01,06,00,11.90
2018,07,01,06,01,11.90
2018,07,01,06,02,11.80
2018,07,01,06,03,11.80
2018,07,01,06,04,11.80
2018,07,01,06,05,11.80
2018,07,01,06,06,11.80
2018,07,01,06,07,11.80
2018,07,01,06,08,11.80
2018,07,01,06,09,11.90
2018,07,01,06,10,11.90
2018,07,01,06,11,11.90
2018,07,01,06,12,11.90
2018,07,01,06,13,11.90
2018,07,01,06,14,11.90
2018,07,01,06,15,11.90
2018,07,01,06,16,11.90
2018,07,01,06,17,11.90
2018,07,01,06,18,11.90
2018,07,01,06,19,12.00
2018,07,01,06,20,12.00
2018,07,01,06,21,12.00
2018,07,01,06,22,12.00
2018,07,01,06,23,12.00
2018,07,01,06,24,12.00
2018,07,01,06,25,12.00
2018,07,01,06,26,12.00
2018,07,01,06,27,12.00
2018,07,01,06,28,12.00
2018,07,01,06,29,12.00
2018,07,01,06,30,12.00
2018,07,01,06,31,12.00
2018,07,01,06,32,12.00
2018,07,01,06,33,12.00
2018,07,01,06,34,12.00
2018,07,01,06,35,12.00
2018,07,01,06,36,12.00
2018,07,01,06,37,12.00
2018,07,01,06,38,12.10
2018,07,01,06,39,12.10
2018,07,01,06,40,12.10
2018,07,01,06,41,12.00
2018,07,01,06,42,12.10
2018,07,01,06,43,12.00
2018,07,01,06,44,12.10
2018,07,01,06,45,12.10
2018,07,01,06,46,12.10
2018,07,01,06,47,12.10
2018,07,01,06,48,12.10
2018,07,01,06,49,12.10
2018,07,01,06,50,12.10
2018,07,01,06,51,12.10
2018,07,01,06,52,12.10
2018,07,01,06,53,12.10
2018,07,01,06,54,12.10
2018,07,01,06,55,12.10
2018,07,01,06,56,12.10
2018,07,01,06,57,12.10
2018,07,01,06,58,12.10
2018,07,01,06,59,12.10
2018,07,01,07,00,12.10
2018,07,01,07,01,12.10
2018,07,01,07,02,12.10
2018,07,01,07,03,12.10
2018,07,01,07,04,12.20
2018,07,01,07,05,12.20
2018,07,01,07,06,12.20
2018,07,01,07,07,12.20
2018,07,01,07,08,12.20
2018,07,01,07,09,12.20
2018,07,01,07,10,12.20
2018,07,01,07,11,12.20
2018,07,01,07,12,12.20
2018,07,01,07,13,12.20
2018,07,01,07,14,12.20
2018,07,01,07,15,12.20
2018,07,01,07,16,12.20
2018,07,01,07,17,12.20
2018,07,01,07,18,12.20
2018,07,01,07,19,12.20
2018,07,01,07,20,12.20
2018,07,01,07,21,12.20
2018,07,01,07,22,12.20
2018,07,01,07,23,12.30
2018,07,01,07,24,12.30
2018,07,01,07,25,12.30
2018,07,01,07,26,12.30
2018,07,01,07,27,12.30
2018,07,01,07,28,12.30
2018,07,01,07,29,12.30
2018,07,01,07,30,12.30
2018,07,01,07,31,12.30
2018,07,01,07,32,12.30
2018,07,01,07,33,12.40
2018,07,01,07,34,12.40
2018,07,01,07,35,12.40
2018,07,01,07,36,12.40
2018,07,01,07,37,12.50
2018,07,01,07,38,12.50
2018,07,01,07,39,12.50
2018,07,01,07,40,12.60
2018,07,01,07,41,12.60
2018,07,01,07,42,12.60
2018,07,01,07,43,12.60
2018,07,01,07,44,12.60
2018,07,01,07,45,12.70
2018,07,01,07,46,12.70
2018,07,01,07,47,12.70
2018,07,01,07,48,12.70
2018,07,01,07,49,12.80
2018,07,01,07,50,12.80
2018,07,01,07,51,12.80
2018,07,01,07,52,12.80
2018,07,01,07,53,12.80
2018,07,01,07,54,12.80
2018,07,01,07,55,12.80
2018,07,01,07,56,12.90
2018,07,01,07,57,12.90
2018,07,01,07,58,12.90
2018,07,01,07,59,12.90
2018,07,01,08,00,12.90
2018,07,01,08,01,12.90
2018,07,01,08,02,12.90
2018,07,01,08,03,13.00
2018,07,01,08,04,13.00
2018,07,01,08,05,13.00
2018,07,01,08,06,13.00
2018,07,01,08,07,13.10
2018,07,01,08,08,13.10
2018,07,01,08,09,13.10
2018,07,01,08,10,13.10
2018,07,01,08,11,13.10
2018,07,01,08,12,13.10
2018,07,01,08,13,13.10
2018,07,01,08,14,13.10
2018,07,01,08,15,13.20
2018,07,01,08,16,13.20
2018,07,01,08,17,13.20
2018,07,01,08,18,13.20
2018,07,01,08,19,13.20
2018,07,01,08,20,13.20
2018,07,01,08,21,13.30
2018,07,01,08,22,13.30
2018,07,01,08,23,13.30
2018,07,01,08,24,13.30
2018,07,01,08,25,13.30
2018,07,01,08,26,13.30
2018,07,01,08,27,13.30
2018,07,01,08,28,13.30
2018,07,01,08,29,13.40
2018,07,01,08,30,13.40
2018,07,01,08,31,13.40
2018,07,01,08,32,13.40
2018,07,01,08,33,13.40
2018,07,01,08,34,13.50
2018,07,01,08,35,13.50
2018,07,01,08,36,13.50
2018,07,01,08,37,13.50
2018,07,01,08,38,13.50
2018,07,01,08,39,13.60
2018,07,01,08,40,13.60
2018,07,01,08,41,13.60
2018,07,01,08,42,13.60
2018,07,01,08,43,13.60
2018,07,01,08,44,13.60
2018,07,01,08,45,13.60
2018,07,01,08,46,13.60
2018,07,01,08,47,13.60
2018,07,01,08,48,13.50
2018,07,01,08,49,13.50
2018,07,01,08,50,13.50
2018,07,01,08,51,13.50
2018,07,01,08,52,13.60
2018,07,01,08,53,13.60
2018,07,01,08,54,13.60
2018,07,01,08,55,13.60
2018,07,01,08,56,13.60
2018,07,01,08,57,13.60
2018,07,01,08,58,13.60
2018,07,01,08,59,13.60
2018,07,01,09,00,13.70
2018,07,01,09,01,13.70
2018,07,01,09,02,13.70
2018,07,01,09,03,13.70
2018,07,01,09,04,13.70
2018,07,01,09,05,13.70
2018,07,01,09,06,13.70
2018,07,01,09,07,13.80
2018,07,01,09,08,13.80
2018,07,01,09,09,13.80
2018,07,01,09,10,13.90
2018,07,01,09,11,13.90
2018,07,01,09,12,13.90
2018,07,01,09,13,14.00
2018,07,01,09,14,14.00
2018,07,01,09,15,14.10
2018,07,01,09,16,14.10
2018,07,01,09,17,14.20
2018,07,01,09,18,14.20
2018,07,01,09,19,14.20
2018,07,01,09,20,14.20
2018,07,01,09,21,14.20
2018,07,01,09,22,14.10
2018,07,01,09,23,14.10
2018,07,01,09,24,14.10
2018,07,01,09,25,14.20
2018,07,01,09,26,14.30
2018,07,01,09,27,14.40
2018,07,01,09,28,14.40
2018,07,01,09,29,14.50
2018,07,01,09,30,14.60
2018,07,01,09,31,14.70
2018,07,01,09,32,14.70
2018,07,01,09,33,14.80
2018,07,01,09,34,14.80
2018,07,01,09,35,14.90
2018,07,01,09,36,15.00
2018,07,01,09,37,15.00
2018,07,01,09,38,15.00
2018,07,01,09,39,15.00
2018,07,01,09,40,15.00
2018,07,01,09,41,15.10
2018,07,01,09,42,15.10
2018,07,01,09,43,15.10
2018,07,01,09,44,15.10
2018,07,01,09,45,15.10
2018,07,01,09,46,15.20
2018,07,01,09,47,15.20
2018,07,01,09,48,15.30
2018,07,01,09,49,15.30
2018,07,01,09,50,15.40
2018,07,01,09,51,15.40
2018,07,01,09,52,15.50
2018,07,01,09,53,15.40
2018,07,01,09,54,15.40
2018,07,01,09,55,15.30
2018,07,01,09,56,15.30
2018,07,01,09,57,15.30
2018,07,01,09,58,15.30
2018,07,01,09,59,15.20
2018,07,01,10,00,15.20
2018,07,01,10,01,15.20
2018,07,01,10,02,15.20
2018,07,01,10,03,15.10
2018,07,01,10,04,15.10
2018,07,01,10,05,15.10
2018,07,01,10,06,15.10
2018,07,01,10,07,15.10
2018,07,01,10,08,15.10
2018,07,01,10,09,15.10
2018,07,01,10,10,15.10
2018,07,01,10,11,15.10
2018,07,01,10,12,15.10
2018,07,01,10,13,15.10
2018,07,01,10,14,15.20
2018,07,01,10,15,15.20
2018,07,01,10,16,15.20
2018,07,01,10,17,15.20
2018,07,01,10,18,15.20
2018,07,01,10,19,15.20
2018,07,01,10,20,15.30
2018,07,01,10,21,15.30
2018,07,01,10,22,15.30
2018,07,01,10,23,15.30
2018,07,01,10,24,15.30
2018,07,01,10,25,15.20
2018,07,01,10,26,15.20
2018,07,01,10,27,15.30
2018,07,01,10,28,15.30
2018,07,01,10,29,15.40
2018,07,01,10,30,15.40
2018,07,01,10,31,15.50
2018,07,01,10,32,15.50
2018,07,01,10,33,15.50
2018,07,01,10,34,15.50
2018,07,01,10,35,15.50
2018,07,01,10,36,15.50
2018,07,01,10,37,15.50
2018,07,01,10,38,15.50
2018,07,01,10,39,15.50
2018,07,01,10,40,15.50
2018,07,01,10,41,15.60
2018,07,01,10,42,15.50
2018,07,01,10,43,15.50
2018,07,01,10,44,15.50
2018,07,01,10,45,15.60
2018,07,01,10,46,15.60
2018,07,01,10,47,15.60
2018,07,01,10,48,15.70
2018,07,01,10,49,15.80
2018,07,01,10,50,15.90
2018,07,01,10,51,15.90
2018,07,01,10,52,16.00
2018,07,01,10,53,16.10
2018,07,01,10,54,16.10
2018,07,01,10,55,16.20
2018,07,01,10,56,16.30
2018,07,01,10,57,16.30
2018,07,01,10,58,16.40
2018,07,01,10,59,16.40
2018,07,01,11,00,16.40
2018,07,01,11,01,16.50
2018,07,01,11,02,16.50
2018,07,01,11,03,16.40
2018,07,01,11,04,16.40
2018,07,01,11,05,16.30
2018,07,01,11,06,16.30
2018,07,01,11,07,16.30
2018,07,01,11,08,16.30
2018,07,01,11,09,16.20
2018,07,01,11,10,16.10
2018,07,01,11,11,16.00
2018,07,01,11,12,16.00
2018,07,01,11,13,15.90
2018,07,01,11,14,15.90
2018,07,01,11,15,16.00
2018,07,01,11,16,16.10
2018,07,01,11,17,16.10
2018,07,01,11,18,16.20
2018,07,01,11,19,16.30
2018,07,01,11,20,16.30
2018,07,01,11,21,16.40
2018,07,01,11,22,16.40
2018,07,01,11,23,16.40
2018,07,01,11,24,16.40
2018,07,01,11,25,16.40
2018,07,01,11,26,16.40
2018,07,01,11,27,16.40
2018,07,01,11,28,16.40
2018,07,01,11,29,16.40
2018,07,01,11,30,16.30
2018,07,01,11,31,16.30
2018,07,01,11,32,16.30
2018,07,01,11,33,16.40
2018,07,01,11,34,16.40
2018,07,01,11,35,16.50
2018,07,01,11,36,16.60
2018,07,01,11,37,16.70
2018,07,01,11,38,16.70
2018,07,01,11,39,16.70
2018,07,01,11,40,16.80
2018,07,01,11,41,16.90
2018,07,01,11,42,16.90
2018,07,01,11,43,16.90
2018,07,01,11,44,16.90
2018,07,01,11,45,16.90
2018,07,01,11,46,16.90
2018,07,01,11,47,16.90
2018,07,01,11,48,16.90
2018,07,01,11,49,16.90
2018,07,01,11,50,17.00
2018,07,01,11,51,17.10
2018,07,01,11,52,17.10
2018,07,01,11,53,17.20
2018,07,01,11,54,17.20
2018,07,01,11,55,17.30
2018,07,01,11,56,17.30
2018,07,01,11,57,17.30
2018,07,01,11,58,17.30
2018,07,01,11,59,17.30
2018,07,01,12,00,17.30
2018,07,01,12,01,17.40
2018,07,01,12,02,17.50
2018,07,01,12,03,17.50
2018,07,01,12,04,17.60
2018,07,01,12,05,17.50
2018,07,01,12,06,17.50
2018,07,01,12,07,17.50
2018,07,01,12,08,17.60
2018,07,01,12,09,17.50
2018,07,01,12,10,17.50
2018,07,01,12,11,17.60
2018,07,01,12,12,17.60
2018,07,01,12,13,17.70
2018,07,01,12,14,17.70
2018,07,01,12,15,17.80
2018,07,01,12,16,17.90
2018,07,01,12,17,17.80
2018,07,01,12,18,17.80
2018,07,01,12,19,17.80
2018,07,01,12,20,17.80
2018,07,01,12,21,17.80
2018,07,01,12,22,17.70
2018,07,01,12,23,17.70
2018,07,01,12,24,17.80
2018,07,01,12,25,17.80
2018,07,01,12,26,17.90
2018,07,01,12,27,18.00
2018,07,01,12,28,18.10
2018,07,01,12,29,18.20
2018,07,01,12,30,18.30
2018,07,01,12,31,18.40
2018,07,01,12,32,18.50
2018,07,01,12,33,18.60
2018,07,01,12,34,18.70
2018,07,01,12,35,18.70
2018,07,01,12,36,18.80
2018,07,01,12,37,18.90
2018,07,01,12,38,18.90
2018,07,01,12,39,18.80
2018,07,01,12,40,18.80
2018,07,01,12,41,18.90
2018,07,01,12,42,18.90
2018,07,01,12,43,18.90
2018,07,01,12,44,18.90
2018,07,01,12,45,18.90
2018,07,01,12,46,18.80
2018,07,01,12,47,18.80
2018,07,01,12,48,18.80
2018,07,01,12,49,18.80
2018,07,01,12,50,18.80
2018,07,01,12,51,18.70
2018,07,01,12,52,18.70
2018,07,01,12,53,18.70
2018,07,01,12,54,18.70
2018,07,01,12,55,18.70
2018,07,01,12,56,18.70
2018,07,01,12,57,18.80
2018,07,01,12,58,18.80
2018,07,01,12,59,18.80
2018,07,01,13,00,18.80
2018,07,01,13,01,18.70
2018,07,01,13,02,18.50
2018,07,01,13,03,18.50
2018,07,01,13,04,18.30
2018,07,01,13,05,18.30
2018,07,01,13,06,18.20
2018,07,01,13,07,18.20
2018,07,01,13,08,18.20
2018,07,01,13,09,18.30
2018,07,01,13,10,18.30
2018,07,01,13,11,18.40
2018,07,01,13,12,18.40
2018,07,01,13,13,18.50
2018,07,01,13,14,18.60
2018,07,01,13,15,18.60
2018,07,01,13,16,18.70
2018,07,01,13,17,18.80
2018,07,01,13,18,19.00
2018,07,01,13,19,19.10
2018,07,01,13,20,19.20
2018,07,01,13,21,19.30
2018,07,01,13,22,19.40
2018,07,01,13,23,19.50
2018,07,01,13,24,19.50
2018,07,01,13,25,19.60
2018,07,01,13,26,19.60
2018,07,01,13,27,19.60
2018,07,01,13,28,19.60
2018,07,01,13,29,19.70
2018,07,01,13,30,19.70
2018,07,01,13,31,19.70
2018,07,01,13,32,19.70
2018,07,01,13,33,19.70
2018,07,01,13,34,19.70
2018,07,01,13,35,19.70
2018,07,01,13,36,19.70
2018,07,01,13,37,19.60
2018,07,01,13,38,19.60
2018,07,01,13,39,19.50
2018,07,01,13,40,19.50
2018,07,01,13,41,19.50
2018,07,01,13,42,19.50
2018,07,01,13,43,19.40
2018,07,01,13,44,19.40
2018,07,01,13,45,19.40
2018,07,01,13,46,19.40
2018,07,01,13,47,19.30
2018,07,01,13,48,19.20
2018,07,01,13,49,19.20
2018,07,01,13,50,19.20
2018,07,01,13,51,19.30
2018,07,01,13,52,19.30
2018,07,01,13,53,19.40
2018,07,01,13,54,19.50
2018,07,01,13,55,19.60
2018,07,01,13,56,19.70
2018,07,01,13,57,19.80
2018,07,01,13,58,19.80
2018,07,01,13,59,19.80
2018,07,01,14,00,19.90
2018,07,01,14,01,19.90
2018,07,01,14,02,19.90
2018,07,01,14,03,19.90
2018,07,01,14,04,19.90
2018,07,01,14,05,19.90
2018,07,01,14,06,20.00
2018,07,01,14,07,20.00
2018,07,01,14,08,20.00
2018,07,01,14,09,20.00
2018,07,01,14,10,19.90
2018,07,01,14,11,19.80
2018,07,01,14,12,19.80
2018,07,01,14,13,19.80
2018,07,01,14,14,19.80
2018,07,01,14,15,19.90
2018,07,01,14,16,20.00
2018,07,01,14,17,20.10
2018,07,01,14,18,20.20
2018,07,01,14,19,20.30
2018,07,01,14,20,20.40
2018,07,01,14,21,20.40
2018,07,01,14,22,20.30
2018,07,01,14,23,20.20
2018,07,01,14,24,20.20
2018,07,01,14,25,20.20
2018,07,01,14,26,20.20
2018,07,01,14,27,20.10
2018,07,01,14,28,20.10
2018,07,01,14,29,20.10
2018,07,01,14,30,20.10
2018,07,01,14,31,20.10
2018,07,01,14,32,20.20
2018,07,01,14,33,20.30
2018,07,01,14,34,20.40
2018,07,01,14,35,20.50
2018,07,01,14,36,20.40
2018,07,01,14,37,20.20
2018,07,01,14,38,20.00
2018,07,01,14,39,19.90
2018,07,01,14,40,19.80
2018,07,01,14,41,19.80
2018,07,01,14,42,19.80
2018,07,01,14,43,19.80
2018,07,01,14,44,19.80
2018,07,01,14,45,19.90
2018,07,01,14,46,19.90
2018,07,01,14,47,20.00
2018,07,01,14,48,20.00
2018,07,01,14,49,20.20
2018,07,01,14,50,20.40
2018,07,01,14,51,20.50
2018,07,01,14,52,20.60
2018,07,01,14,53,20.60
2018,07,01,14,54,20.50
2018,07,01,14,55,20.40
2018,07,01,14,56,20.50
2018,07,01,14,57,20.60
2018,07,01,14,58,20.70
2018,07,01,14,59,20.80
2018,07,01,15,00,20.90
2018,07,01,15,01,21.00
2018,07,01,15,02,21.10
2018,07,01,15,03,21.10
2018,07,01,15,04,21.20
2018,07,01,15,05,21.30
2018,07,01,15,06,21.30
2018,07,01,15,07,21.40
2018,07,01,15,08,21.40
2018,07,01,15,09,21.30
2018,07,01,15,10,21.30
2018,07,01,15,11,21.30
2018,07,01,15,12,21.30
2018,07,01,15,13,21.30
2018,07,01,15,14,21.30
2018,07,01,15,15,21.20
2018,07,01,15,16,21.20
2018,07,01,15,17,21.10
2018,07,01,15,18,21.10
2018,07,01,15,19,21.10
2018,07,01,15,20,21.10
2018,07,01,15,21,21.10
2018,07,01,15,22,21.10
2018,07,01,15,23,21.10
2018,07,01,15,24,21.10
2018,07,01,15,25,21.00
2018,07,01,15,26,20.90
2018,07,01,15,27,20.70
2018,07,01,15,28,20.60
2018,07,01,15,29,20.50
2018,07,01,15,30,20.40
2018,07,01,15,31,20.30
2018,07,01,15,32,20.30
2018,07,01,15,33,20.30
2018,07,01,15,34,20.20
2018,07,01,15,35,20.20
2018,07,01,15,36,20.10
2018,07,01,15,37,20.00
2018,07,01,15,38,19.90
2018,07,01,15,39,19.80
2018,07,01,15,40,19.80
2018,07,01,15,41,19.60
2018,07,01,15,42,19.60
2018,07,01,15,43,19.50
2018,07,01,15,44,19.50
2018,07,01,15,45,19.40
2018,07,01,15,46,19.30
2018,07,01,15,47,19.20
2018,07,01,15,48,19.10
2018,07,01,15,49,19.00
2018,07,01,15,50,19.00
2018,07,01,15,51,18.90
2018,07,01,15,52,18.80
2018,07,01,15,53,18.80
2018,07,01,15,54,18.70
2018,07,01,15,55,18.70
2018,07,01,15,56,18.60
2018,07,01,15,57,18.60
2018,07,01,15,58,18.50
2018,07,01,15,59,18.50
2018,07,01,16,00,18.50
2018,07,01,16,01,18.50
2018,07,01,16,02,18.40
2018,07,01,16,03,18.40
2018,07,01,16,04,18.40
2018,07,01,16,05,18.40
2018,07,01,16,06,18.40
2018,07,01,16,07,18.40
2018,07,01,16,08,18.40
2018,07,01,16,09,18.40
2018,07,01,16,10,18.40
2018,07,01,16,11,18.40
2018,07,01,16,12,18.50
2018,07,01,16,13,18.50
2018,07,01,16,14,18.60
2018,07,01,16,15,18.60
2018,07,01,16,16,18.60
2018,07,01,16,17,18.70
2018,07,01,16,18,18.70
2018,07,01,16,19,18.70
2018,07,01,16,20,18.70
2018,07,01,16,21,18.70
2018,07,01,16,22,18.80
2018,07,01,16,23,18.80
2018,07,01,16,24,18.80
2018,07,01,16,25,18.90
2018,07,01,16,26,18.90
2018,07,01,16,27,18.90
2018,07,01,16,28,18.90
2018,07,01,16,29,18.80
2018,07,01,16,30,18.80
2018,07,01,16,31,18.80
2018,07,01,16,32,18.80
2018,07,01,16,33,18.80
2018,07,01,16,34,18.80
2018,07,01,16,35,18.80
2018,07,01,16,36,18.90
2018,07,01,16,37,18.90
2018,07,01,16,38,18.90
2018,07,01,16,39,19.00
2018,07,01,16,40,19.10
2018,07,01,16,41,19.10
2018,07,01,16,42,19.20
2018,07,01,16,43,19.40
2018,07,01,16,44,19.50
2018,07,01,16,45,19.70
2018,07,01,16,46,19.80
2018,07,01,16,47,19.90
2018,07,01,16,48,20.00
2018,07,01,16,49,20.10
2018,07,01,16,50,20.20
2018,07,01,16,51,20.10
2018,07,01,16,52,20.10
2018,07,01,16,53,20.00
2018,07,01,16,54,20.00
2018,07,01,16,55,20.00
2018,07,01,16,56,20.00
2018,07,01,16,57,20.00
2018,07,01,16,58,20.00
2018,07,01,16,59,20.00
2018,07,01,17,00,20.10
2018,07,01,17,01,20.00
2018,07,01,17,02,20.10
2018,07,01,17,03,20.10
2018,07,01,17,04,20.10
2018,07,01,17,05,20.10
2018,07,01,17,06,20.10
2018,07,01,17,07,20.10
2018,07,01,17,08,20.10
2018,07,01,17,09,20.10
2018,07,01,17,10,20.10
2018,07,01,17,11,20.10
2018,07,01,17,12,20.10
2018,07,01,17,13,20.10
2018,07,01,17,14,20.10
2018,07,01,17,15,20.00
2018,07,01,17,16,19.90
2018,07,01,17,17,19.80
2018,07,01,17,18,19.70
2018,07,01,17,19,19.60